[[{"header":{"parameterUnit":"m.s-1","parameterCategory":2,"la1":30.2991,"la2":30.254,"lo1":-89.0895,"lo2":-89.0444,"dy":0.0017,"dx":0.0017,"nx":28,"ny":28,"refTime":"2024-04-12T03:00:00:Z","depth":"0","parameterNumber":2,"parameterNumberName":"U-component_of_CURRENTS"},"data":[0,0,0,0,0,0,0,0,0,0,0,0,0,0,0,0,0,0,0,0,0,0,0,0,0,0,0,0,0,0,0,0,0,0,0,0,0,0,0,0,0,0,0,0,0,0,0,0,0,0,0,0,0,0,0,0,0,0,0.2073,0.2075,0,0.2201,0.2201,0.2202,0.2189,0.2188,0.2187,0.2186,0.2118,0.2117,0.2117,0,0,0,0,0,0,0,0,0,0,0,0,0,0.1887,0.1889,0.2072,0.2075,0.2077,0.2201,0.2202,0.2202,0.219,0.2188,0.2187,0.2185,0.2118,0.2117,0.2117,0,0,0,0,0,0,0,0,0,0,0,0,0,0.1978,0.189,0.2072,0.2093,0.2096,0.22,0.2202,0.2203,0.219,0.2188,0.2186,0.2185,0.2119,0.2118,0.2117,0.2145,0,0,0.2113,0.2113,0,0,0,0,0,0,0,0,0.1973,0.1983,0.2087,0.2091,0.2096,0.2185,0.2112,0.2177,0.219,0.2145,0.2186,0.2184,0.213,0.2128,0.2145,0.2142,0.2139,0.2113,0.2112,0.2112,0.2112,0,0,0,0,0,0,0,0.1966,0.1978,0.2114,0.209,0.2096,0.212,0.2129,0.2125,0.2135,0.2149,0.215,0.218,0.2129,0.2147,0.2143,0.2138,0.2113,0.2112,0.2112,0.2111,0.2118,0.2119,0,0,0,0,0,0,0.1968,0.1972,0.211,0.2119,0.2039,0.2125,0.2135,0.2151,0.2139,0.214,0.2181,0.2179,0.2149,0.2145,0.2141,0.2143,0.2112,0.2111,0.211,0.2117,0.2118,0.2119,0,0,0,0,0,0,0.1963,0.1978,0.2105,0.2056,0.2075,0.2131,0.2148,0.2155,0.2169,0.2168,0.2162,0.2189,0.2148,0.2142,0.2128,0.214,0.211,0.2109,0.2116,0.2117,0.2118,0.2166,0,0,0,0,0,0,0.1957,0.1975,0.1989,0.2056,0.2079,0.2169,0.2151,0.2159,0.2194,0.2192,0.2173,0.2166,0.2146,0.213,0.2127,0.2138,0.2109,0.2115,0.2117,0.2118,0.2163,0.2168,0.2173,0,0,0,0,0,0.1949,0.1975,0.1988,0.2006,0.2094,0.2172,0.2185,0.2212,0.2196,0.2214,0.2189,0.2166,0.2138,0.213,0.2126,0.2138,0.2114,0.2116,0.2118,0.2161,0.2167,0.2173,0,0,0,0,0,0,0.1893,0.1979,0.1994,0.2041,0.2106,0.2173,0.2202,0.2217,0.2217,0.2211,0.2176,0.2169,0.2161,0.2147,0.2139,0.2145,0.2123,0.2124,0.2157,0.2163,0.2167,0.2214,0.2108,0,0,0,0,0,0.1893,0.193,0.2017,0.205,0.2088,0.2143,0.2178,0.2208,0.2227,0.2227,0.2202,0.2183,0.2172,0.2162,0.2151,0.2157,0.2191,0.2163,0.2168,0.2172,0.2208,0.2264,0.2278,0.2125,0.2125,0.2125,0,0,0.1875,0.1933,0.1949,0.2042,0.2089,0.2144,0.2156,0.2226,0.2248,0.2218,0.221,0.2198,0.2177,0.2179,0.2176,0.2165,0.2234,0.2174,0.2178,0.2213,0.2267,0.2283,0.2296,0.2126,0.2126,0.2126,0,0,0.188,0.1916,0.1962,0.203,0.2133,0.2156,0.2175,0.2245,0.2252,0.2263,0.2245,0.2251,0.2212,0.2223,0.2215,0.2246,0.2257,0.2229,0.2293,0.2345,0.2359,0.2372,0.2441,0.2459,0.2232,0.2232,0.2232,0,0.1865,0.1927,0.1985,0.2067,0.2108,0.2154,0.2205,0.2234,0.2278,0.2295,0.2257,0.2268,0.2239,0.228,0.2285,0.226,0.2299,0.2268,0.2355,0.2368,0.238,0.2447,0.2467,0.2235,0.2235,0.2234,0.2234,0,0.1922,0.1977,0.2012,0.2102,0.2146,0.2208,0.2262,0.2283,0.2271,0.2309,0.2343,0.2331,0.2347,0.2332,0.231,0.2389,0.2393,0.2353,0.2344,0.2398,0.2465,0.2485,0.2238,0.2238,0.2237,0.2236,0,0,0.189,0.2021,0.2037,0.2092,0.2176,0.2229,0.2245,0.23,0.235,0.2365,0.2422,0.2413,0.2448,0.2447,0.2443,0.2489,0.2591,0.2464,0.2466,0.2543,0.2735,0.2765,0.2789,0.2566,0.2569,0.2572,0.275,0,0.1917,0.2041,0.2083,0.2166,0.2231,0.2266,0.2283,0.2345,0.2372,0.244,0.2471,0.2523,0.248,0.251,0.2551,0.2585,0.2645,0.2549,0.2664,0.2668,0.2696,0.2814,0.2868,0.3034,0.2769,0.2772,0.2775,0,0.1983,0.2048,0.2126,0.2224,0.2253,0.2286,0.2346,0.2396,0.2494,0.2524,0.2601,0.2636,0.2726,0.2665,0.2787,0.2729,0.275,0.2768,0.2774,0.2809,0.2737,0.2935,0.308,0.3115,0.2805,0.2803,0.28,0,0.1966,0.2092,0.2134,0.2179,0.2276,0.2296,0.2337,0.2425,0.2477,0.2619,0.2674,0.278,0.2848,0.2892,0.2924,0.2868,0.3058,0.2972,0.3031,0.3032,0.311,0.3113,0.3315,0.3073,0.3073,0.3072,0.3072,0,0.2003,0.2066,0.2142,0.2185,0.2238,0.2324,0.2394,0.2459,0.2568,0.2679,0.2748,0.2851,0.2908,0.3005,0.3005,0.3111,0.3125,0.3102,0.31,0.3126,0.3128,0.3181,0.3149,0.3079,0.3078,0.3076,0.3075,0,0.201,0.2066,0.2135,0.2211,0.224,0.2295,0.2395,0.2474,0.2584,0.273,0.2777,0.2932,0.3093,0.3147,0.3257,0.3236,0.3272,0.3327,0.3368,0.3368,0.3427,0.3393,0.3327,0.3228,0.3443,0.3445,0.3447,0,0.2026,0.2066,0.2125,0.2163,0.2198,0.2283,0.234,0.2454,0.2553,0.2786,0.2868,0.3067,0.3218,0.3408,0.3459,0.3537,0.3389,0.3587,0.348,0.3506,0.3467,0.3185,0.3083,0.3605,0.3608,0.361,0.3612,0,0.2055,0.2064,0.2099,0.2127,0.2187,0.2271,0.2385,0.2437,0.2622,0.2749,0.2968,0.3111,0.3381,0.354,0.3661,0.368,0.3502,0.3637,0.3667,0.3646,0.3352,0.3232,0.341,0.3634,0.3632,0.363,0.3629,0.3628,0.205,0.2063,0.2079,0.2109,0.2176,0.2262,0.2306,0.2452,0.2582,0.2811,0.2989,0.3232,0.3575,0.3782,0.376,0.3881,0.3647,0.3863,0.3835,0.3554,0.3419,0.3654,0.3854,0.3853,0.3852,0.3852,0.3851,0,0.2039,0.2063,0.2083,0.2119,0.2163,0.2211,0.2337,0.2393,0.2534,0.2815,0.3014,0.345,0.371,0.3912,0.419,0.4148,0.3827,0.4075,0.3754,0.3649,0.3943,0.3918,0.4138,0.4138,0.4138,0.4138,0.4138,0.4138,0.2053,0.2058,0.2054,0.2097,0.2129,0.2172,0.2226,0.2328,0.2506,0.2818,0.3104,0.3354,0.3862,0.4359,0.4513,0.4392,0.4062,0.3916,0.3757,0.4109,0.4086,0.4064,0.4038,0.4279,0.4279,0.3352,0.3346,0.3342]},{"header":{"parameterUnit":"m.s-1","parameterCategory":2,"la1":30.2991,"la2":30.254,"lo1":-89.0895,"lo2":-89.0444,"dy":0.0017,"dx":0.0017,"nx":28,"ny":28,"refTime":"2024-04-12T03:00:00:Z","depth":"0","parameterNumber":3,"parameterNumberName":"V-component_of_CURRENTS"},"data":[0,0,0,0,0,0,0,0,0,0,0,0,0,0,0,0,0,0,0,0,0,0,0,0,0,0,0,0,0,0,0,0,0,0,0,0,0,0,0,0,0,0,0,0,0,0,0,0,0,0,0,0,0,0,0,0,0,0,-0.0393,-0.0395,0,-0.0515,-0.0515,-0.0515,-0.0548,-0.0548,-0.0548,-0.0549,-0.0506,-0.0504,-0.0503,0,0,0,0,0,0,0,0,0,0,0,0,0,-0.0316,-0.0315,-0.0392,-0.0395,-0.0398,-0.0515,-0.0515,-0.0515,-0.0547,-0.0548,-0.0549,-0.0549,-0.0506,-0.0505,-0.0503,0,0,0,0,0,0,0,0,0,0,0,0,0,-0.0372,-0.0315,-0.0392,-0.0438,-0.0444,-0.0514,-0.0515,-0.0515,-0.0547,-0.0548,-0.0549,-0.0549,-0.0507,-0.0505,-0.0502,-0.0473,0,0,-0.0495,-0.0494,0,0,0,0,0,0,0,0,-0.0368,-0.0372,-0.0428,-0.0435,-0.0442,-0.0528,-0.0473,-0.0498,-0.0547,-0.0494,-0.0549,-0.055,-0.0506,-0.0504,-0.0509,-0.0471,-0.0469,-0.0495,-0.0493,-0.0492,-0.0492,0,0,0,0,0,0,0,-0.0364,-0.0369,-0.0427,-0.0431,-0.044,-0.0498,-0.0503,-0.0478,-0.0481,-0.0499,-0.0505,-0.0539,-0.0507,-0.0511,-0.0508,-0.0469,-0.0495,-0.0493,-0.0491,-0.049,-0.0475,-0.0476,0,0,0,0,0,0,-0.0368,-0.0364,-0.0424,-0.0432,-0.0421,-0.0499,-0.0505,-0.0489,-0.0485,-0.0491,-0.0539,-0.0541,-0.0515,-0.051,-0.0506,-0.0496,-0.0492,-0.049,-0.0489,-0.0474,-0.0475,-0.0476,0,0,0,0,0,0,-0.0365,-0.037,-0.0419,-0.0415,-0.0427,-0.05,-0.0482,-0.0491,-0.0499,-0.052,-0.0519,-0.0539,-0.0515,-0.0509,-0.048,-0.0494,-0.0489,-0.0487,-0.0473,-0.0474,-0.0476,-0.0459,0,0,0,0,0,0,-0.0361,-0.0366,-0.0356,-0.0413,-0.0428,-0.0438,-0.0483,-0.0494,-0.0526,-0.0529,-0.0519,-0.0517,-0.0515,-0.0483,-0.0477,-0.049,-0.0485,-0.0471,-0.0473,-0.0475,-0.0459,-0.046,-0.0461,0,0,0,0,0,-0.0357,-0.0328,-0.0353,-0.0362,-0.0408,-0.0438,-0.0447,-0.0497,-0.0525,-0.0508,-0.0515,-0.0517,-0.0493,-0.048,-0.0474,-0.0486,-0.047,-0.0473,-0.0475,-0.0458,-0.046,-0.0461,0,0,0,0,0,0,-0.0271,-0.0332,-0.036,-0.0345,-0.0387,-0.0448,-0.0448,-0.0492,-0.0488,-0.049,-0.0501,-0.0497,-0.0484,-0.0486,-0.0473,-0.0495,-0.0493,-0.0494,-0.0483,-0.0485,-0.0486,-0.0475,-0.0483,0,0,0,0,0,-0.0255,-0.0261,-0.0319,-0.0312,-0.0319,-0.0384,-0.0407,-0.0445,-0.0465,-0.0466,-0.047,-0.0482,-0.0489,-0.0485,-0.048,-0.0468,-0.0471,-0.0485,-0.0486,-0.0487,-0.0477,-0.0493,-0.0494,-0.0484,-0.0484,-0.0484,0,0,-0.0232,-0.0265,-0.0272,-0.0299,-0.0326,-0.0332,-0.0392,-0.0417,-0.0441,-0.0457,-0.0455,-0.047,-0.0486,-0.0484,-0.0482,-0.0485,-0.0494,-0.049,-0.049,-0.048,-0.0495,-0.0496,-0.0496,-0.0485,-0.0485,-0.0485,0,0,-0.0184,-0.0194,-0.0182,-0.0216,-0.0271,-0.0297,-0.0302,-0.0356,-0.0384,-0.0399,-0.0431,-0.045,-0.045,-0.0474,-0.0488,-0.0492,-0.0496,-0.0506,-0.0502,-0.0517,-0.0517,-0.0517,-0.0525,-0.0526,-0.0513,-0.0513,-0.0513,0,-0.0162,-0.0141,-0.0183,-0.0186,-0.0214,-0.0273,-0.0266,-0.0302,-0.0352,-0.0367,-0.0392,-0.0435,-0.0452,-0.047,-0.0492,-0.0494,-0.0497,-0.0489,-0.0516,-0.0516,-0.0517,-0.0525,-0.0526,-0.0512,-0.0512,-0.0512,-0.0512,0,-0.011,-0.0107,-0.0094,-0.0114,-0.0136,-0.0139,-0.0204,-0.0218,-0.0266,-0.0317,-0.035,-0.0392,-0.0413,-0.0451,-0.0474,-0.0499,-0.0498,-0.0508,-0.0504,-0.0516,-0.0525,-0.0526,-0.0512,-0.0512,-0.0512,-0.0512,0,0,-0.0041,-0.0053,-0.0055,-0.006,-0.0104,-0.0115,-0.0133,-0.016,-0.0163,-0.0246,-0.0257,-0.0337,-0.0369,-0.0389,-0.0435,-0.048,-0.0505,-0.05,-0.0501,-0.0493,-0.0529,-0.0541,-0.0543,-0.0514,-0.0515,-0.0515,-0.0533,0,0.0012,0.0042,0.001,0.0021,0.0038,-0.0028,-0.0027,-0.0078,-0.012,-0.0135,-0.0238,-0.0253,-0.0345,-0.0351,-0.0413,-0.0463,-0.0508,-0.0499,-0.053,-0.0531,-0.0528,-0.0545,-0.0521,-0.0536,-0.0535,-0.0535,-0.0535,0,0.0063,0.008,0.012,0.0101,0.0106,0.0103,0.0098,0.0082,0.0034,-0.0002,-0.0061,-0.0124,-0.0201,-0.0275,-0.039,-0.0374,-0.045,-0.0515,-0.0516,-0.053,-0.0545,-0.0526,-0.0539,-0.0742,-0.0538,-0.0537,-0.0537,0,0.0138,0.0138,0.0184,0.0169,0.016,0.0162,0.0166,0.0134,0.0142,0.0096,0.0099,-0.0006,-0.0034,-0.016,-0.0313,-0.0339,-0.0432,-0.0472,-0.056,-0.0561,-0.0548,-0.0548,-0.0747,-0.0553,-0.0553,-0.0553,-0.0553,0,0.0195,0.0214,0.0223,0.024,0.0295,0.0245,0.031,0.0281,0.0281,0.0327,0.0187,0.0198,-0.0007,-0.0097,-0.0254,-0.0401,-0.0379,-0.0555,-0.0568,-0.0544,-0.0543,-0.0725,-0.0866,-0.0554,-0.0554,-0.0554,-0.0554,0,0.0247,0.0262,0.0296,0.0314,0.0334,0.0361,0.0412,0.0461,0.0436,0.0492,0.0483,0.037,0.0259,0.0044,-0.0134,-0.0298,-0.0578,-0.0511,-0.047,-0.0479,-0.0766,-0.0906,-0.1096,-0.1248,-0.061,-0.0611,-0.0611,0,0.0276,0.0308,0.0362,0.0412,0.0423,0.0484,0.0557,0.055,0.0602,0.0611,0.0646,0.0545,0.0516,0.0226,-0.0083,-0.0347,-0.0577,-0.0516,-0.0581,-0.0782,-0.0947,-0.1028,-0.1149,-0.0558,-0.0558,-0.0558,-0.0557,0,0.0307,0.0328,0.0372,0.0511,0.0582,0.0663,0.0746,0.082,0.0842,0.0898,0.0958,0.0941,0.0642,0.04,-0.0001,-0.0224,-0.0689,-0.0523,-0.0741,-0.0938,-0.1027,-0.1176,-0.0547,-0.0557,-0.0557,-0.0557,-0.0557,-0.0557,0.0329,0.0365,0.0461,0.0581,0.0684,0.0817,0.0952,0.1054,0.1188,0.1328,0.1254,0.1334,0.09,0.0357,-0.0029,-0.0661,-0.0707,-0.0827,-0.098,-0.104,-0.1203,-0.0574,-0.0596,-0.0597,-0.0597,-0.0597,-0.0597,0,0.0342,0.0409,0.0532,0.0687,0.0846,0.0887,0.1072,0.1244,0.1471,0.1615,0.1715,0.1633,0.1031,0.041,-0.0454,-0.097,-0.1212,-0.1267,-0.1392,-0.1502,-0.093,-0.0944,-0.1031,-0.1031,-0.103,-0.103,-0.103,-0.103,0.0357,0.0467,0.054,0.0797,0.0943,0.1195,0.1338,0.1585,0.1766,0.2082,0.2236,0.228,0.1908,0.0177,-0.1006,-0.1367,-0.181,-0.1877,-0.2119,-0.1735,-0.1705,-0.1677,-0.1722,-0.1971,-0.1972,-0.2608,-0.2615,-0.262]}],[{"header":{"parameterUnit":"m.s-1","parameterCategory":2,"la1":30.2991,"la2":30.254,"lo1":-89.0895,"lo2":-89.0444,"dy":0.0017,"dx":0.0017,"nx":28,"ny":28,"refTime":"2024-04-12T03:00:00:Z","depth":"2","parameterNumber":2,"parameterNumberName":"U-component_of_CURRENTS"},"data":[0,0,0,0,0,0,0,0,0,0,0,0,0,0,0,0,0,0,0,0,0,0,0,0,0,0,0,0,0,0,0,0,0,0,0,0,0,0,0,0,0,0,0,0,0,0,0,0,0,0,0,0,0,0,0,0,0,0,0.2003,0.2005,0,0.2134,0.2135,0.2136,0.2133,0.2132,0.2131,0.213,0.2063,0.2062,0.2061,0,0,0,0,0,0,0,0,0,0,0,0,0,0.183,0.1832,0.2002,0.2005,0.2007,0.2134,0.2135,0.2136,0.2133,0.2132,0.2131,0.213,0.2063,0.2062,0.2061,0,0,0,0,0,0,0,0,0,0,0,0,0,0.192,0.1832,0.2002,0.2027,0.2031,0.2134,0.2135,0.2136,0.2134,0.2132,0.2131,0.2129,0.2063,0.2062,0.2061,0.2085,0,0,0.2057,0.2057,0,0,0,0,0,0,0,0,0.1915,0.1925,0.2021,0.2025,0.203,0.2123,0.205,0.2112,0.2134,0.2086,0.213,0.2128,0.207,0.2069,0.2089,0.2082,0.2079,0.2057,0.2056,0.2056,0.2055,0,0,0,0,0,0,0,0.1908,0.192,0.2047,0.2024,0.203,0.206,0.2069,0.2063,0.2076,0.209,0.2093,0.212,0.207,0.209,0.2086,0.2078,0.2057,0.2056,0.2055,0.2055,0.2059,0.206,0,0,0,0,0,0,0.1906,0.1914,0.2043,0.2051,0.1976,0.2065,0.2075,0.2088,0.208,0.2082,0.2122,0.212,0.2093,0.2088,0.2084,0.2087,0.2056,0.2055,0.2054,0.2058,0.2059,0.206,0,0,0,0,0,0,0.1901,0.1915,0.2037,0.1993,0.2011,0.2069,0.2085,0.2092,0.2109,0.2108,0.2103,0.2132,0.2091,0.2086,0.2071,0.2084,0.2054,0.2053,0.2057,0.2058,0.206,0.2108,0,0,0,0,0,0,0.1895,0.1912,0.1925,0.1992,0.2014,0.21,0.2087,0.2096,0.2133,0.2131,0.2115,0.2108,0.209,0.2073,0.207,0.2082,0.2052,0.2056,0.2058,0.2059,0.2105,0.211,0.2115,0,0,0,0,0,0.1888,0.1912,0.1924,0.1941,0.2027,0.2102,0.2116,0.2147,0.2135,0.2152,0.2131,0.2108,0.2081,0.2073,0.2069,0.2081,0.2055,0.2057,0.2059,0.2103,0.2109,0.2115,0,0,0,0,0,0,0.1831,0.1917,0.1931,0.1975,0.2037,0.2105,0.2135,0.2151,0.2155,0.2151,0.2118,0.211,0.2103,0.2089,0.2081,0.2088,0.2065,0.2067,0.21,0.2106,0.2111,0.2161,0.2051,0,0,0,0,0,0.183,0.1869,0.1952,0.1982,0.2019,0.2075,0.2111,0.2142,0.2161,0.2163,0.2142,0.2125,0.2114,0.2104,0.2094,0.2099,0.2132,0.2105,0.211,0.2114,0.2153,0.2205,0.222,0.2066,0.2066,0.2066,0,0,0.1812,0.1869,0.1886,0.1975,0.2023,0.2076,0.209,0.2159,0.2182,0.2153,0.2151,0.214,0.2118,0.2122,0.2118,0.2107,0.2175,0.2117,0.212,0.2157,0.2209,0.2224,0.2238,0.2068,0.2067,0.2067,0,0,0.1816,0.1851,0.1899,0.1968,0.2069,0.2089,0.2107,0.2178,0.2188,0.22,0.2185,0.2192,0.2154,0.2166,0.2159,0.219,0.2199,0.2172,0.2239,0.2288,0.2302,0.2315,0.2382,0.24,0.2175,0.2176,0.2176,0,0.1802,0.1859,0.1921,0.2005,0.2046,0.2087,0.2137,0.2168,0.2214,0.2233,0.2196,0.2212,0.2182,0.2224,0.2231,0.2204,0.2241,0.2213,0.2298,0.2311,0.2323,0.2388,0.2408,0.2178,0.2178,0.2178,0.2177,0,0.1861,0.1912,0.1948,0.2039,0.2085,0.2142,0.2198,0.2221,0.2209,0.2249,0.2287,0.2276,0.2294,0.2279,0.2256,0.2336,0.2338,0.2296,0.2287,0.2342,0.2406,0.2426,0.2182,0.2181,0.218,0.2179,0,0,0.1828,0.1957,0.1973,0.2029,0.2112,0.2168,0.2184,0.2236,0.2289,0.2307,0.2367,0.2361,0.2397,0.2396,0.2392,0.2438,0.2538,0.2411,0.2412,0.2488,0.2676,0.27,0.2723,0.2509,0.2513,0.2516,0.2689,0,0.1852,0.1974,0.2017,0.2102,0.2165,0.2202,0.222,0.2285,0.2312,0.2382,0.2416,0.247,0.2429,0.246,0.2501,0.2532,0.2592,0.2497,0.2605,0.2609,0.2631,0.2748,0.2487,0.2622,0.2708,0.2711,0.2714,0,0.192,0.1979,0.2057,0.2155,0.2186,0.2223,0.2286,0.2335,0.2435,0.2467,0.2546,0.2583,0.2674,0.2614,0.2734,0.2677,0.2696,0.2713,0.2718,0.2748,0.2671,0.2579,0.2655,0.2746,0.2744,0.2741,0.2739,0,0.1903,0.2026,0.2065,0.2114,0.221,0.2235,0.2274,0.2365,0.2417,0.2561,0.2618,0.2725,0.2793,0.2835,0.2866,0.2811,0.2998,0.2911,0.2963,0.2964,0.2773,0.2752,0.3011,0.3011,0.3011,0.301,0.301,0,0.1935,0.1999,0.2076,0.212,0.2172,0.2265,0.2336,0.2401,0.2509,0.2619,0.2691,0.2794,0.2853,0.2947,0.2945,0.3046,0.3061,0.3035,0.303,0.2782,0.2762,0.2878,0.286,0.3017,0.3015,0.3014,0.3013,0,0.1946,0.1999,0.2071,0.2147,0.2175,0.2235,0.2336,0.2414,0.2525,0.267,0.2717,0.2872,0.303,0.3085,0.319,0.3168,0.3234,0.3253,0.298,0.2943,0.3149,0.3131,0.3354,0.3357,0.3359,0.3361,0.3363,0,0.1962,0.2003,0.2063,0.2104,0.214,0.2227,0.228,0.2392,0.2492,0.2722,0.2804,0.3,0.3139,0.3322,0.3308,0.3365,0.3361,0.3173,0.3024,0.3222,0.3194,0.3172,0.3152,0.2779,0.2776,0.2773,0.2771,0,0.1992,0.2008,0.2038,0.2065,0.2128,0.2212,0.2323,0.2375,0.2557,0.2673,0.2887,0.3018,0.3227,0.3201,0.3291,0.3262,0.3142,0.3127,0.341,0.2746,0.2697,0.2663,0.2659,0.2747,0.2749,0.2751,0.2752,0.2753,0.1992,0.2006,0.2017,0.2048,0.2115,0.2202,0.2243,0.2346,0.2456,0.2601,0.2819,0.2911,0.3022,0.3028,0.2979,0.2924,0.3126,0.2973,0.2972,0.2977,0.2893,0.2852,0.2917,0.292,0.2923,0.2925,0.2927,0,0.1954,0.2007,0.2024,0.2059,0.2072,0.215,0.2274,0.2253,0.232,0.2466,0.2586,0.2465,0.2523,0.261,0.2504,0.2562,0.2425,0.2464,0.2246,0.2277,0.2303,0.2173,0.2012,0.2008,0.2005,0.2002,0,0,0.1965,0.1956,0.1948,0.1978,0.2032,0.203,0.2081,0.2053,0.2091,0.2064,0.2096,0.2318,0.2523,0.2188,0.2206,0.2091,0.2132,0.2005,0.2751,0.2523,0.2542,0.2634,0.2479,0,0,0,0,0]},{"header":{"parameterUnit":"m.s-1","parameterCategory":2,"la1":30.2991,"la2":30.254,"lo1":-89.0895,"lo2":-89.0444,"dy":0.0017,"dx":0.0017,"nx":28,"ny":28,"refTime":"2024-04-12T03:00:00:Z","depth":"2","parameterNumber":3,"parameterNumberName":"V-component_of_CURRENTS"},"data":[0,0,0,0,0,0,0,0,0,0,0,0,0,0,0,0,0,0,0,0,0,0,0,0,0,0,0,0,0,0,0,0,0,0,0,0,0,0,0,0,0,0,0,0,0,0,0,0,0,0,0,0,0,0,0,0,0,0,-0.0318,-0.032,0,-0.0443,-0.0444,-0.0444,-0.049,-0.049,-0.0491,-0.0491,-0.045,-0.0449,-0.0447,0,0,0,0,0,0,0,0,0,0,0,0,0,-0.0257,-0.0256,-0.0317,-0.032,-0.0323,-0.0443,-0.0444,-0.0444,-0.049,-0.049,-0.0491,-0.0492,-0.0451,-0.0449,-0.0447,0,0,0,0,0,0,0,0,0,0,0,0,0,-0.0312,-0.0256,-0.0317,-0.0368,-0.0374,-0.0443,-0.0444,-0.0445,-0.049,-0.049,-0.0491,-0.0492,-0.0451,-0.0449,-0.0447,-0.0415,0,0,-0.0439,-0.0438,0,0,0,0,0,0,0,0,-0.0309,-0.0313,-0.0358,-0.0364,-0.0372,-0.0461,-0.0409,-0.043,-0.0489,-0.0434,-0.0491,-0.0492,-0.0445,-0.0443,-0.0452,-0.0413,-0.0411,-0.0439,-0.0438,-0.0437,-0.0436,0,0,0,0,0,0,0,-0.0305,-0.0309,-0.0356,-0.0361,-0.0369,-0.0433,-0.0439,-0.0413,-0.0422,-0.0439,-0.0445,-0.0476,-0.0446,-0.0454,-0.0451,-0.0411,-0.0439,-0.0437,-0.0436,-0.0435,-0.0417,-0.0418,0,0,0,0,0,0,-0.0302,-0.0304,-0.0352,-0.0361,-0.0354,-0.0434,-0.044,-0.0423,-0.0426,-0.0432,-0.0476,-0.0478,-0.0458,-0.0454,-0.0449,-0.044,-0.0437,-0.0434,-0.0433,-0.0416,-0.0418,-0.0419,0,0,0,0,0,0,-0.03,-0.0303,-0.0348,-0.0348,-0.0359,-0.0434,-0.0414,-0.0425,-0.0438,-0.0458,-0.0458,-0.048,-0.0458,-0.0453,-0.0423,-0.0438,-0.0433,-0.0431,-0.0415,-0.0417,-0.0418,-0.0402,0,0,0,0,0,0,-0.0296,-0.03,-0.0289,-0.0345,-0.0359,-0.0364,-0.0415,-0.0427,-0.0461,-0.0466,-0.0461,-0.0458,-0.0459,-0.0427,-0.0421,-0.0434,-0.0429,-0.0414,-0.0416,-0.0418,-0.0402,-0.0403,-0.0404,0,0,0,0,0,-0.0293,-0.0263,-0.0286,-0.0294,-0.0338,-0.0364,-0.0373,-0.0426,-0.0461,-0.0444,-0.0456,-0.0459,-0.0437,-0.0424,-0.0417,-0.043,-0.0413,-0.0415,-0.0418,-0.0401,-0.0403,-0.0404,0,0,0,0,0,0,-0.0207,-0.0268,-0.0294,-0.0277,-0.0313,-0.0375,-0.0376,-0.0422,-0.0423,-0.0429,-0.0442,-0.0438,-0.0426,-0.0428,-0.0415,-0.0438,-0.0437,-0.0437,-0.0427,-0.0428,-0.043,-0.0422,-0.0427,0,0,0,0,0,-0.0191,-0.02,-0.0251,-0.0242,-0.0248,-0.0313,-0.0336,-0.0375,-0.0396,-0.04,-0.0408,-0.0423,-0.0431,-0.0426,-0.0422,-0.041,-0.0414,-0.0427,-0.0429,-0.043,-0.0423,-0.0436,-0.0437,-0.0426,-0.0426,-0.0426,0,0,-0.0169,-0.0199,-0.0209,-0.023,-0.0257,-0.0262,-0.0322,-0.0346,-0.0372,-0.039,-0.0396,-0.0411,-0.0427,-0.0427,-0.0425,-0.0428,-0.0437,-0.0432,-0.0433,-0.0426,-0.0438,-0.0439,-0.044,-0.0428,-0.0427,-0.0427,0,0,-0.012,-0.013,-0.012,-0.0154,-0.0205,-0.0228,-0.0232,-0.0286,-0.0318,-0.0335,-0.037,-0.0389,-0.0391,-0.0417,-0.043,-0.0434,-0.0438,-0.0448,-0.0447,-0.046,-0.046,-0.046,-0.0469,-0.047,-0.0455,-0.0455,-0.0455,0,-0.0101,-0.0075,-0.012,-0.0125,-0.015,-0.0204,-0.0195,-0.0235,-0.0286,-0.0302,-0.033,-0.0377,-0.0394,-0.0413,-0.0436,-0.0435,-0.0439,-0.0434,-0.0459,-0.0459,-0.046,-0.0469,-0.047,-0.0454,-0.0454,-0.0454,-0.0454,0,-0.005,-0.0044,-0.0031,-0.0052,-0.0076,-0.0073,-0.0139,-0.0154,-0.0204,-0.0256,-0.0292,-0.0335,-0.0358,-0.0395,-0.0419,-0.0444,-0.0444,-0.045,-0.0447,-0.0459,-0.0469,-0.047,-0.0453,-0.0454,-0.0454,-0.0454,0,0,0.0017,0.0008,0.0006,0.0,-0.0041,-0.0054,-0.0073,-0.0095,-0.0102,-0.0188,-0.0202,-0.0284,-0.0317,-0.0337,-0.0382,-0.0428,-0.0454,-0.0447,-0.0448,-0.0442,-0.0475,-0.0488,-0.0491,-0.0459,-0.0459,-0.0459,-0.048,0,0.0074,0.0104,0.0073,0.0084,0.0101,0.0035,0.0035,-0.0019,-0.006,-0.0079,-0.0183,-0.02,-0.0293,-0.0301,-0.0363,-0.0411,-0.0457,-0.0447,-0.0476,-0.0477,-0.0475,-0.0493,-0.0453,-0.0469,-0.0482,-0.0482,-0.0482,0,0.0122,0.0143,0.0185,0.0165,0.0169,0.0164,0.0156,0.0139,0.009,0.0052,-0.001,-0.0073,-0.0152,-0.0226,-0.0341,-0.0326,-0.0401,-0.0465,-0.0467,-0.0482,-0.0492,-0.0461,-0.0472,-0.0485,-0.0485,-0.0485,-0.0485,0,0.0193,0.0198,0.0248,0.023,0.0223,0.0221,0.0226,0.019,0.0197,0.0149,0.015,0.0043,0.0014,-0.0111,-0.0266,-0.029,-0.0385,-0.042,-0.051,-0.0511,-0.0485,-0.0483,-0.0503,-0.0503,-0.0503,-0.0503,-0.0503,0,0.0254,0.0273,0.0283,0.0299,0.0354,0.0299,0.0363,0.0333,0.0333,0.0377,0.0237,0.0246,0.0041,-0.005,-0.0207,-0.0355,-0.0331,-0.0509,-0.0518,-0.0481,-0.0479,-0.0498,-0.0498,-0.0503,-0.0503,-0.0503,-0.0503,0,0.0301,0.032,0.0352,0.0371,0.0391,0.0413,0.0463,0.0511,0.0486,0.054,0.053,0.0416,0.0304,0.0088,-0.009,-0.0252,-0.0406,-0.0466,-0.0411,-0.0416,-0.0541,-0.0539,-0.0564,-0.0565,-0.0566,-0.0566,-0.0566,0,0.0329,0.036,0.0413,0.0461,0.0474,0.0532,0.0606,0.06,0.065,0.0657,0.0691,0.0588,0.0553,0.0264,-0.0036,-0.03,-0.0367,-0.0457,-0.0518,-0.0541,-0.0548,-0.0545,-0.0543,-0.0477,-0.0477,-0.0476,-0.0476,0,0.0359,0.0375,0.0423,0.0561,0.0629,0.0709,0.0793,0.0865,0.0888,0.094,0.0996,0.0974,0.0679,0.0427,0.0027,-0.0171,-0.0419,-0.046,-0.0475,-0.0473,-0.0462,-0.0468,-0.0467,-0.0473,-0.0473,-0.0474,-0.0474,-0.0474,0.0378,0.0412,0.051,0.0629,0.073,0.0861,0.0995,0.1088,0.1217,0.1317,0.1254,0.1238,0.089,0.0408,0.0045,-0.0371,-0.037,-0.0517,-0.0516,-0.0516,-0.0508,-0.0499,-0.0515,-0.0516,-0.0516,-0.0517,-0.0517,0,0.041,0.0455,0.0579,0.0732,0.09,0.093,0.1114,0.1267,0.1476,0.1522,0.1586,0.1289,0.0948,0.0524,-0.0068,-0.042,-0.0465,-0.0546,-0.0516,-0.0515,-0.0515,-0.0507,-0.0515,-0.0516,-0.0517,-0.0518,0,0,0.0427,0.0544,0.062,0.0866,0.0997,0.1236,0.1375,0.1573,0.1671,0.1793,0.1765,0.1635,0.1108,0.0689,0.0195,-0.015,-0.0252,-0.023,-0.0192,-0.0095,-0.0091,-0.046,-0.0441,0,0,0,0,0]}],[{"header":{"parameterUnit":"m.s-1","parameterCategory":2,"la1":30.2991,"la2":30.254,"lo1":-89.0895,"lo2":-89.0444,"dy":0.0017,"dx":0.0017,"nx":28,"ny":28,"refTime":"2024-04-12T03:00:00:Z","depth":"4","parameterNumber":2,"parameterNumberName":"U-component_of_CURRENTS"},"data":[0,0,0,0,0,0,0,0,0,0,0,0,0,0,0,0,0,0,0,0,0,0,0,0,0,0,0,0,0,0,0,0,0,0,0,0,0,0,0,0,0,0,0,0,0,0,0,0,0,0,0,0,0,0,0,0,0,0,0.0668,0.0669,0,0.0749,0.075,0.0751,0.0866,0.0867,0.0869,0.087,0.1038,0.1041,0.1044,0,0,0,0,0,0,0,0,0,0,0,0,0,0.0609,0.061,0.0668,0.0669,0.067,0.0748,0.075,0.0751,0.0865,0.0867,0.0869,0.0871,0.1037,0.104,0.1044,0,0,0,0,0,0,0,0,0,0,0,0,0,0.066,0.061,0.0668,0.0733,0.0739,0.0748,0.075,0.0752,0.0865,0.0867,0.087,0.0872,0.1036,0.104,0.1044,0.1023,0,0,0.1058,0.106,0,0,0,0,0,0,0,0,0.0657,0.0663,0.0723,0.0729,0.0736,0.0796,0.079,0.0845,0.0864,0.0821,0.087,0.0873,0.0961,0.0971,0.0985,0.1031,0.1038,0.1058,0.1061,0.1063,0.1064,0,0,0,0,0,0,0,0.0653,0.066,0.0704,0.0723,0.0731,0.0756,0.0767,0.0801,0.0881,0.0825,0.0833,0.0835,0.0966,0.0981,0.099,0.1041,0.1058,0.1062,0.1065,0.1067,0.1258,0.126,0,0,0,0,0,0,0.0633,0.0656,0.0701,0.0706,0.0697,0.0755,0.0767,0.0777,0.0879,0.0895,0.0833,0.084,0.0972,0.0985,0.0997,0.1117,0.1063,0.1067,0.107,0.1256,0.1258,0.1261,0,0,0,0,0,0,0.0632,0.0637,0.0698,0.0679,0.0689,0.0753,0.0764,0.0778,0.0768,0.0883,0.0902,0.0807,0.0974,0.0991,0.1079,0.112,0.1069,0.1073,0.1253,0.1256,0.126,0.1269,0,0,0,0,0,0,0.063,0.0636,0.0675,0.0678,0.0689,0.0692,0.0762,0.0777,0.0766,0.0775,0.0867,0.0887,0.0978,0.1072,0.1083,0.1125,0.1077,0.125,0.1254,0.1259,0.1265,0.1272,0.1278,0,0,0,0,0,0.0627,0.0662,0.0676,0.0683,0.0728,0.069,0.0697,0.0754,0.0761,0.0754,0.0863,0.0883,0.1109,0.1077,0.109,0.1134,0.1247,0.1253,0.1258,0.1263,0.1271,0.1278,0,0,0,0,0,0,0.0663,0.0676,0.0692,0.0733,0.0704,0.0708,0.0739,0.0714,0.0782,0.0849,0.0901,0.093,0.1035,0.1067,0.1028,0.1206,0.1184,0.1192,0.1183,0.1191,0.1198,0.1196,0.108,0,0,0,0,0,0.0681,0.0711,0.069,0.0718,0.0712,0.0701,0.0703,0.0737,0.0777,0.0807,0.0893,0.0996,0.1065,0.111,0.1209,0.1269,0.1295,0.1311,0.1317,0.1322,0.1333,0.1389,0.1401,0.1279,0.1279,0.1279,0,0,0.07,0.0713,0.0733,0.0727,0.0732,0.0746,0.0711,0.0734,0.0783,0.0818,0.0968,0.1023,0.1087,0.1214,0.1258,0.1242,0.1376,0.1329,0.1333,0.1341,0.1396,0.1407,0.1418,0.1283,0.1282,0.1281,0,0,0.0727,0.076,0.0785,0.0762,0.0775,0.0796,0.0771,0.0802,0.086,0.0953,0.1022,0.1079,0.1208,0.1271,0.1299,0.137,0.141,0.1416,0.1442,0.1496,0.1506,0.1515,0.1575,0.1589,0.1414,0.1414,0.1414,0,0.0749,0.0786,0.0777,0.0778,0.0793,0.0796,0.0814,0.0863,0.0943,0.0993,0.1029,0.119,0.1232,0.1301,0.1365,0.138,0.1438,0.14,0.1501,0.1511,0.1519,0.1579,0.1594,0.1415,0.1415,0.1415,0.1415,0,0.0776,0.0811,0.0815,0.0849,0.0856,0.0879,0.0924,0.1003,0.1074,0.1116,0.1227,0.1297,0.1384,0.139,0.1406,0.1486,0.1518,0.1501,0.1471,0.1531,0.1591,0.1607,0.1417,0.1417,0.1416,0.1416,0,0,0.0789,0.0833,0.0834,0.0848,0.0909,0.0898,0.1026,0.1092,0.1173,0.1267,0.1345,0.1421,0.1453,0.1486,0.1501,0.1522,0.1621,0.1556,0.1558,0.1598,0.1781,0.1691,0.17,0.1643,0.1646,0.1648,0.18,0,0.0809,0.0846,0.0876,0.0919,0.0938,0.0996,0.1102,0.1184,0.1289,0.1405,0.1419,0.1529,0.149,0.1556,0.1572,0.1641,0.1665,0.1583,0.1733,0.1737,0.1634,0.1715,0.1656,0.1812,0.1815,0.1818,0.182,0,0.0816,0.0851,0.091,0.097,0.0984,0.104,0.1195,0.1294,0.1444,0.1532,0.1608,0.1656,0.1729,0.1681,0.1788,0.1762,0.1783,0.1786,0.1792,0.1715,0.1677,0.174,0.1848,0.1846,0.1844,0.1842,0.184,0,0.0812,0.0853,0.0918,0.0926,0.1024,0.1088,0.1181,0.1342,0.1444,0.1634,0.1709,0.1811,0.1881,0.1931,0.1956,0.1922,0.2055,0.2003,0.1917,0.1912,0.1938,0.1927,0.2046,0.2045,0.2045,0.2045,0.2044,0,0.0805,0.083,0.092,0.0939,0.1029,0.111,0.127,0.1372,0.1559,0.1665,0.1782,0.1861,0.1952,0.2023,0.2037,0.205,0.2134,0.1946,0.1949,0.1942,0.1929,0.195,0.1936,0.205,0.2049,0.2048,0.2047,0,0.0767,0.0825,0.0868,0.0982,0.1025,0.1092,0.1281,0.1395,0.1585,0.173,0.1792,0.1946,0.2076,0.2121,0.2219,0.2137,0.2166,0.2126,0.2153,0.2152,0.1969,0.1955,0.208,0.2078,0.2077,0.2075,0.2074,0,0.0758,0.0789,0.0887,0.0919,0.0968,0.1104,0.1218,0.1406,0.1508,0.175,0.178,0.1963,0.2048,0.213,0.2197,0.2251,0.2178,0.2179,0.2023,0.1984,0.1976,0.1964,0.1952,0.2072,0.2072,0.2071,0.2071,0,0.0721,0.0763,0.0802,0.0916,0.0987,0.1057,0.1204,0.1269,0.1494,0.164,0.177,0.186,0.1987,0.2086,0.214,0.2147,0.2191,0.2162,0.2163,0.2016,0.1976,0.1966,0.1957,0.2066,0.2066,0.2067,0.2067,0,0.0696,0.0699,0.0791,0.0866,0.0941,0.0978,0.1073,0.1202,0.1326,0.1564,0.1616,0.1815,0.1978,0.2033,0.209,0.2113,0.2053,0.1944,0.1955,0.1962,0.1847,0.1774,0.1828,0,0,0,0,0,0.0662,0.0664,0.0745,0.0798,0.0883,0.093,0.1044,0.1151,0.1342,0.1393,0.1508,0.1635,0.1771,0.188,0.1877,0.2011,0.2037,0.1996,0.191,0.2036,0.2042,0.1915,0,0,0,0,0,0,0.062,0.0669,0.0715,0.0744,0.079,0.0861,0.0918,0.1042,0.1089,0.1293,0.1385,0.1534,0.1692,0.1771,0.1852,0.1879,0.1789,0.2123,0.2119,0.2033,0.2038,0.2043,0.1915,0,0,0,0,0]},{"header":{"parameterUnit":"m.s-1","parameterCategory":2,"la1":30.2991,"la2":30.254,"lo1":-89.0895,"lo2":-89.0444,"dy":0.0017,"dx":0.0017,"nx":28,"ny":28,"refTime":"2024-04-12T03:00:00:Z","depth":"4","parameterNumber":3,"parameterNumberName":"V-component_of_CURRENTS"},"data":[0,0,0,0,0,0,0,0,0,0,0,0,0,0,0,0,0,0,0,0,0,0,0,0,0,0,0,0,0,0,0,0,0,0,0,0,0,0,0,0,0,0,0,0,0,0,0,0,0,0,0,0,0,0,0,0,0,0,0.0635,0.0637,0,0.0653,0.0652,0.065,0.0558,0.0558,0.0557,0.0556,0.0405,0.0401,0.0398,0,0,0,0,0,0,0,0,0,0,0,0,0,0.0587,0.0586,0.0635,0.0637,0.0639,0.0654,0.0652,0.065,0.0559,0.0558,0.0557,0.0556,0.0406,0.0402,0.0398,0,0,0,0,0,0,0,0,0,0,0,0,0,0.0587,0.0586,0.0635,0.061,0.061,0.0654,0.0652,0.065,0.0559,0.0558,0.0556,0.0555,0.0407,0.0402,0.0397,0.0391,0,0,0.0382,0.038,0,0,0,0,0,0,0,0,0.0587,0.0586,0.0612,0.0612,0.0612,0.062,0.0581,0.0562,0.0559,0.0557,0.0556,0.0555,0.0475,0.0465,0.0444,0.0384,0.0377,0.0382,0.0379,0.0377,0.0375,0,0,0,0,0,0,0,0.0587,0.0586,0.0622,0.0615,0.0615,0.0623,0.0618,0.0576,0.0503,0.0557,0.0555,0.059,0.0471,0.0449,0.044,0.0375,0.0382,0.0378,0.0375,0.0373,0.025,0.025,0,0,0,0,0,0,0.0624,0.0586,0.0622,0.0624,0.0619,0.0626,0.062,0.0602,0.0508,0.0499,0.0591,0.0586,0.0458,0.0446,0.0434,0.039,0.0377,0.0372,0.0369,0.025,0.025,0.025,0,0,0,0,0,0,0.0621,0.0624,0.0621,0.0625,0.0628,0.0629,0.0609,0.0604,0.0613,0.0539,0.0523,0.0612,0.0457,0.0441,0.0381,0.0385,0.037,0.0365,0.0251,0.025,0.025,0.0322,0,0,0,0,0,0,0.0619,0.0622,0.0605,0.0625,0.0629,0.0662,0.0613,0.0606,0.0644,0.0637,0.0552,0.0535,0.0455,0.0389,0.0376,0.0378,0.0362,0.0251,0.025,0.025,0.032,0.0324,0.0327,0,0,0,0,0,0.0616,0.0607,0.0603,0.0609,0.0609,0.0666,0.0665,0.0651,0.0647,0.0652,0.0572,0.0539,0.0376,0.0384,0.0369,0.037,0.0251,0.0251,0.025,0.0318,0.0323,0.0327,0,0,0,0,0,0,0.0565,0.06,0.0595,0.059,0.0638,0.0658,0.0664,0.0685,0.0631,0.0608,0.0533,0.051,0.0455,0.041,0.0422,0.0332,0.031,0.0307,0.0367,0.0371,0.0375,0.0442,0.0357,0,0,0,0,0,0.0557,0.0561,0.0608,0.0611,0.0632,0.066,0.0681,0.0685,0.0665,0.0643,0.0571,0.0495,0.044,0.0406,0.0333,0.0298,0.0253,0.0288,0.0292,0.0296,0.0339,0.0238,0.0237,0.0247,0.0247,0.0247,0,0,0.0552,0.0568,0.0574,0.0605,0.0623,0.0644,0.0662,0.0706,0.07,0.0634,0.0554,0.0506,0.0434,0.0365,0.034,0.033,0.0267,0.0295,0.0298,0.0341,0.0237,0.0236,0.0235,0.0247,0.0247,0.0247,0,0,0.0561,0.0546,0.056,0.0604,0.0663,0.0655,0.069,0.0706,0.068,0.0637,0.058,0.0562,0.0435,0.0405,0.0376,0.0376,0.029,0.033,0.0404,0.0304,0.0303,0.0301,0.0239,0.0231,0.0332,0.0332,0.0332,0,0.0562,0.0566,0.0581,0.0619,0.0656,0.067,0.0707,0.0679,0.0663,0.0648,0.0607,0.0506,0.0466,0.0445,0.044,0.0392,0.031,0.0392,0.031,0.0308,0.0305,0.0242,0.0232,0.0336,0.0335,0.0335,0.0335,0,0.059,0.0604,0.0626,0.0644,0.067,0.0718,0.0711,0.0676,0.0641,0.0633,0.0598,0.0544,0.049,0.0485,0.0465,0.0444,0.0384,0.0325,0.0305,0.0308,0.0241,0.023,0.0341,0.0339,0.0338,0.0338,0,0,0.0587,0.0637,0.065,0.0676,0.0703,0.0734,0.0685,0.0679,0.0665,0.0618,0.0604,0.058,0.0578,0.0552,0.0533,0.0502,0.0437,0.0416,0.0409,0.0369,0.0208,0.0197,0.0184,0.032,0.0318,0.0317,0.0168,0,0.0618,0.0682,0.0691,0.0738,0.0767,0.0757,0.0714,0.0702,0.0656,0.061,0.0611,0.0581,0.0586,0.0578,0.0541,0.0451,0.0409,0.0484,0.0202,0.0196,0.0195,0.0172,0.0313,0.016,0.0157,0.0155,0.0154,0,0.0649,0.0683,0.0746,0.0781,0.0794,0.0804,0.0764,0.0741,0.0681,0.0646,0.063,0.06,0.0591,0.057,0.0434,0.0452,0.0355,0.03,0.0288,0.0259,0.0165,0.0153,0.0133,0.0135,0.0137,0.0138,0.0139,0,0.0645,0.0725,0.077,0.0802,0.0821,0.0825,0.0808,0.0762,0.075,0.0685,0.0671,0.0607,0.0582,0.0443,0.0346,0.0344,0.0173,0.0126,0.0041,0.0038,0.0063,0.0066,0.0029,0.0029,0.0029,0.003,0.003,0,0.0674,0.0722,0.0784,0.0816,0.0846,0.0857,0.0868,0.0817,0.0787,0.0792,0.0711,0.0701,0.0542,0.0432,0.0312,0.0145,0.0111,0.0075,-0.0002,0.0095,0.0103,0.0054,0.0059,0.0024,0.0025,0.0026,0.0027,0,0.0677,0.0723,0.0784,0.0833,0.085,0.0873,0.0913,0.0927,0.0873,0.0865,0.0851,0.0744,0.059,0.0439,0.0226,0.012,-0.0044,-0.0091,0.0056,-0.0013,-0.0101,-0.0091,-0.0221,-0.0223,-0.0224,-0.0225,-0.0226,0,0.0682,0.0724,0.0799,0.0848,0.0886,0.0933,0.0965,0.0949,0.0968,0.0907,0.0906,0.0779,0.069,0.0385,0.0204,-0.0067,-0.0081,-0.0182,-0.0129,-0.0065,-0.0128,-0.0115,-0.0103,-0.0229,-0.0229,-0.0229,-0.023,0,0.0703,0.0742,0.0779,0.0863,0.0936,0.1014,0.106,0.1073,0.1054,0.1026,0.0946,0.0797,0.0625,0.0394,0.0184,0.0001,-0.0136,-0.0197,-0.0194,-0.0146,-0.0077,-0.0134,-0.0121,-0.0234,-0.0234,-0.0233,-0.0233,0,0.0717,0.0746,0.0803,0.0883,0.0974,0.1065,0.1091,0.1117,0.1113,0.1043,0.1019,0.083,0.0717,0.0429,0.0233,0.0042,0.0005,-0.0052,-0.0057,-0.0055,0.0045,0.0161,0.0022,0,0,0,0,0,0.0728,0.0769,0.0836,0.092,0.1015,0.1079,0.1143,0.1166,0.1153,0.1109,0.1058,0.0898,0.0604,0.0476,0.0285,0.0208,-0.003,-0.0024,-0.0098,-0.0261,-0.0256,-0.0166,0,0,0,0,0,0,0.0734,0.0794,0.0822,0.094,0.1019,0.113,0.1185,0.1191,0.1147,0.1105,0.0955,0.0855,0.0574,0.0725,0.0288,0.0226,0.0152,-0.0166,-0.0171,-0.0264,-0.0259,-0.0255,-0.0161,0,0,0,0,0]}]]